Andrómeda ‚ÄĒ CTHK ‚ÄĒ position and weather

sailwx.info

Track history (hours):
 
Tides and Currents Weather Stations Pressure Air Temp Water Temp Dewpoint Dewpoint Depression Visibility Wind Speed Wind Dir Waves Ship Positions

Oceanographic research ship Andrómeda (Portugal)

Detailed information on ship capabilities available from University of Delaware's Ocean Information Center.

Last reported at 2019-Jun-19 21:25 UTC. Time now 2019-Jun-19 21:56 UTC.
Position N 38°26' W 009°07'.

Length 32 m; draft 3 m.

Type: Dredging. MMSI: 263139000.

Date/timePositionNaut miles runAvg speedWind from/ knotsBaromVisibWave heightAir tempDewpointWater temp
2019-Jun-19 21:25N 38°26' W 009°07'0 0.0
2019-Jun-19 20:58N 38°26' W 009°07'0 0.0
2019-Jun-19 20:28N 38°26' W 009°07'0 0.0
2019-Jun-19 19:58N 38°26' W 009°07'0 0.0
2019-Jun-19 19:22N 38°26' W 009°07'0 0.0
2019-Jun-19 18:58N 38°26' W 009°07'0 0.0
2019-Jun-19 18:29N 38°26' W 009°07'3 5.2
2019-Jun-19 18:00N 38°24' W 009°08'4 8.2
2019-Jun-19 17:31N 38°23' W 009°13'0 0.1
2019-Jun-19 17:00N 38°24' W 009°13'1 3.0
2019-Jun-19 16:31N 38°24' W 009°12'1 2.2
2019-Jun-19 16:01N 38°23' W 009°13'2 4.3
2019-Jun-19 15:30N 38°24' W 009°10'1 1.0
2019-Jun-19 15:00N 38°24' W 009°11'1 2.9
2019-Jun-19 14:30N 38°24' W 009°09'0 0.8
2019-Jun-19 13:59N 38°24' W 009°10'1 2.0
2019-Jun-19 13:30N 38°24' W 009°08'1 1.3
2019-Jun-19 13:00N 38°23' W 009°08'1 2.5
2019-Jun-19 12:30N 38°24' W 009°07'0 0.4
2019-Jun-19 11:58N 38°24' W 009°07'1 2.8
2019-Jun-19 11:30N 38°24' W 009°05'2 3.0
2019-Jun-19 11:00N 38°25' W 009°04'0 0.8
2019-Jun-19 10:31N 38°25' W 009°04'0 0.2
2019-Jun-19 10:00N 38°25' W 009°04'1 2.4
2019-Jun-19 09:30N 38°25' W 009°06'1 2.2
2019-Jun-19 09:00N 38°25' W 009°07'1 1.1
2019-Jun-19 08:30N 38°25' W 009°07'0 0.2
2019-Jun-19 08:00N 38°25' W 009°06'1 2.2
2019-Jun-19 07:29N 38°26' W 009°07'0 0.0
2019-Jun-18 17:31N 38°26' W 009°07'0 0.0
2019-Jun-18 17:30N 38°26' W 009°07'0 0.0
2019-Jun-18 17:00N 38°26' W 009°07'0 0.5
2019-Jun-18 16:31N 38°26' W 009°06'1 1.9
2019-Jun-18 16:01N 38°25' W 009°06'1 1.7
2019-Jun-18 15:31N 38°25' W 009°06'1 1.5
2019-Jun-18 15:00N 38°25' W 009°05'1 1.9
2019-Jun-18 14:30N 38°25' W 009°04'1 1.8
2019-Jun-18 14:00N 38°25' W 009°03'1 1.8
2019-Jun-18 13:31N 38°26' W 009°02'0 0.4
2019-Jun-18 13:01N 38°25' W 009°02'1 2.0
2019-Jun-18 12:31N 38°25' W 009°03'1 1.6
2019-Jun-18 12:01N 38°25' W 009°04'1 1.6
2019-Jun-18 11:31N 38°25' W 009°05'1 1.5
2019-Jun-18 11:01N 38°25' W 009°06'1 1.7
2019-Jun-18 10:31N 38°24' W 009°07'1 2.0
2019-Jun-18 10:01N 38°24' W 009°08'1 1.4
2019-Jun-18 09:29N 38°24' W 009°07'1 2.1
2019-Jun-18 09:01N 38°25' W 009°06'2 3.2
2019-Jun-18 08:29N 38°26' W 009°07'0 0.0
2019-Jun-18 07:59N 38°26' W 009°07'0 0.0
2019-Jun-18 07:29N 38°26' W 009°07'0 0.0
2019-Jun-18 07:00N 38°26' W 009°07'0 0.0
2019-Jun-18 06:30N 38°26' W 009°07'0 0.0
2019-Jun-18 06:00N 38°26' W 009°07'0 0.0
2019-Jun-18 05:30N 38°26' W 009°07'0 0.0
2019-Jun-18 05:00N 38°26' W 009°07'0 0.0
2019-Jun-18 04:30N 38°26' W 009°07'0 0.0
2019-Jun-18 04:00N 38°26' W 009°07'0 0.0
2019-Jun-18 03:30N 38°26' W 009°07'0 0.0
2019-Jun-18 03:00N 38°26' W 009°07'0 0.0
2019-Jun-18 02:30N 38°26' W 009°07'0 0.0
2019-Jun-18 02:00N 38°26' W 009°07'0 0.0
2019-Jun-18 01:30N 38°26' W 009°07'0 0.0
2019-Jun-18 01:00N 38°26' W 009°07'0 0.0
2019-Jun-18 00:30N 38°26' W 009°07'0 0.0
2019-Jun-18 00:00N 38°26' W 009°07'0 0.0
2019-Jun-17 23:30N 38°26' W 009°07'0 0.0
2019-Jun-17 23:00N 38°26' W 009°07'0 0.0
2019-Jun-17 22:30N 38°26' W 009°07'0 0.0
2019-Jun-17 22:00N 38°26' W 009°07'0 0.0
2019-Jun-17 21:48N 38°26' W 009°07'0 0.0
2019-Jun-17 21:45N 38°26' W 009°07'0 0.0
2019-Jun-17 21:37N 38°26' W 009°07'0 0.0
2019-Jun-17 21:21N 38°26' W 009°07'0 0.0
2019-Jun-17 21:00N 38°26' W 009°07'0 0.4
2019-Jun-17 20:30N 38°26' W 009°06'5 9.0
2019-Jun-17 20:00N 38°24' W 009°11'17 0.8
2019-Jun-16 23:29N 38°40' W 009°09'0 0.0
2019-Jun-16 22:59N 38°40' W 009°09'0 0.0
2019-Jun-16 22:26N 38°40' W 009°09'0 0.0
2019-Jun-16 21:59N 38°40' W 009°09'0 0.0
2019-Jun-16 21:29N 38°40' W 009°09'0 0.0
2019-Jun-16 20:56N 38°40' W 009°09'0 0.0
2019-Jun-16 20:29N 38°40' W 009°09'0 0.0
2019-Jun-16 19:59N 38°40' W 009°09'0 0.0
2019-Jun-16 19:29N 38°40' W 009°09'0 0.0
2019-Jun-16 18:59N 38°40' W 009°09'0 0.0
2019-Jun-16 18:29N 38°40' W 009°09'0 0.0
2019-Jun-16 17:59N 38°40' W 009°09'0 0.0
2019-Jun-16 17:29N 38°40' W 009°09'0 0.0
2019-Jun-16 16:59N 38°40' W 009°09'0 0.0
2019-Jun-16 16:29N 38°40' W 009°09'0 0.0
2019-Jun-16 15:59N 38°40' W 009°09'0 0.0
2019-Jun-16 15:29N 38°40' W 009°09'0 0.0
2019-Jun-16 14:59N 38°40' W 009°09'0 0.0
2019-Jun-16 14:29N 38°40' W 009°09'0 0.0
2019-Jun-16 13:59N 38°40' W 009°09'0 0.0
2019-Jun-16 13:29N 38°40' W 009°09'0 0.0
2019-Jun-16 12:53N 38°40' W 009°09'0 0.0
2019-Jun-16 12:29N 38°40' W 009°09'0 0.0
2019-Jun-16 11:59N 38°40' W 009°09'0 0.0
2019-Jun-16 11:29N 38°40' W 009°09'0 0.0
2019-Jun-16 10:59N 38°40' W 009°09'0 0.0
2019-Jun-16 10:29N 38°40' W 009°09'0 0.0
2019-Jun-16 09:59N 38°40' W 009°09'0 0.0
2019-Jun-16 09:29N 38°40' W 009°09'0 0.0
2019-Jun-16 08:59N 38°40' W 009°09'0 0.0
2019-Jun-16 08:29N 38°40' W 009°09'0 0.0
2019-Jun-16 07:59N 38°40' W 009°09'0 0.0
2019-Jun-16 07:29N 38°40' W 009°09'0 0.0
2019-Jun-16 06:59N 38°40' W 009°09'0 0.0
2019-Jun-16 06:29N 38°40' W 009°09'0 0.0
2019-Jun-16 05:59N 38°40' W 009°09'0 0.0
2019-Jun-16 05:29N 38°40' W 009°09'0 0.0
2019-Jun-16 04:59N 38°40' W 009°09'0 0.0
2019-Jun-16 04:29N 38°40' W 009°09'0 0.0
2019-Jun-16 03:59N 38°40' W 009°09'0 0.0
2019-Jun-16 03:29N 38°40' W 009°09'0 0.0
2019-Jun-16 02:59N 38°40' W 009°09'0 0.0
2019-Jun-16 02:29N 38°40' W 009°09'0 0.0
2019-Jun-16 01:59N 38°40' W 009°09'0 0.0
2019-Jun-16 01:26N 38°40' W 009°09'0 0.0
2019-Jun-16 00:59N 38°40' W 009°09'0 0.0
2019-Jun-16 00:29N 38°40' W 009°09'0 0.0
2019-Jun-15 23:59N 38°40' W 009°09'0 0.0
2019-Jun-15 23:29N 38°40' W 009°09'0 0.0
2019-Jun-15 22:59N 38°40' W 009°09'0 0.0
2019-Jun-15 22:29N 38°40' W 009°09'0 0.0
2019-Jun-15 21:59N 38°40' W 009°09'0 0.0
2019-Jun-15 21:29N 38°40' W 009°09'0 0.0
2019-Jun-15 20:59N 38°40' W 009°09'0 0.0
2019-Jun-15 20:29N 38°40' W 009°09'0 0.0
2019-Jun-15 19:56N 38°40' W 009°09'0 0.0
2019-Jun-15 19:29N 38°40' W 009°09'0 0.0
2019-Jun-15 18:56N 38°40' W 009°09'0 0.0
2019-Jun-15 18:29N 38°40' W 009°09'0 0.0
2019-Jun-15 17:59N 38°40' W 009°09'0 0.0
2019-Jun-15 17:29N 38°40' W 009°09'0 0.0
2019-Jun-15 16:59N 38°40' W 009°09'0 0.0
2019-Jun-15 16:29N 38°40' W 009°09'0 0.0
2019-Jun-15 15:59N 38°40' W 009°09'0 0.0
2019-Jun-15 15:29N 38°40' W 009°09'0 0.0
2019-Jun-15 14:56N 38°40' W 009°09'0 0.0
2019-Jun-15 14:26N 38°40' W 009°09'0 0.0
2019-Jun-15 13:59N 38°40' W 009°09'0 0.0
2019-Jun-15 13:29N 38°40' W 009°09'0 0.0
2019-Jun-15 12:56N 38°40' W 009°09'0 0.0
2019-Jun-15 12:29N 38°40' W 009°09'0 0.0
2019-Jun-15 11:59N 38°40' W 009°09'0 0.0
2019-Jun-15 11:29N 38°40' W 009°09'0 0.0
2019-Jun-15 10:56N 38°40' W 009°09'0 0.0
2019-Jun-15 10:23N 38°40' W 009°09'0 0.0
2019-Jun-15 09:56N 38°40' W 009°09'0 0.0
2019-Jun-15 09:29N 38°40' W 009°09'0 0.0
2019-Jun-15 08:59N 38°40' W 009°09'0 0.0
2019-Jun-15 08:29N 38°40' W 009°09'0 0.0
2019-Jun-15 07:59N 38°40' W 009°09'0 0.0
2019-Jun-15 07:29N 38°40' W 009°09'0 0.0
2019-Jun-15 06:59N 38°40' W 009°09'0 0.0
2019-Jun-15 06:29N 38°40' W 009°09'0 0.0
2019-Jun-15 05:59N 38°40' W 009°09'0 0.0
2019-Jun-15 05:29N 38°40' W 009°09'0 0.0
2019-Jun-15 04:59N 38°40' W 009°09'0 0.0
2019-Jun-15 04:29N 38°40' W 009°09'0 0.0
2019-Jun-15 03:59N 38°40' W 009°09'0 0.0
2019-Jun-15 03:29N 38°40' W 009°09'0 0.0
2019-Jun-15 02:59N 38°40' W 009°09'0 0.0
2019-Jun-15 02:29N 38°40' W 009°09'0 0.0
2019-Jun-15 01:59N 38°40' W 009°09'0 0.0
2019-Jun-15 01:29N 38°40' W 009°09'0 0.0
2019-Jun-15 00:59N 38°40' W 009°09'0 0.0
2019-Jun-15 00:29N 38°40' W 009°09'0 0.0
2019-Jun-14 23:59N 38°40' W 009°09'0 0.0
2019-Jun-14 23:29N 38°40' W 009°09'0 0.0
2019-Jun-14 22:56N 38°40' W 009°09'0 0.0
2019-Jun-14 22:29N 38°40' W 009°09'0 0.0
2019-Jun-14 21:59N 38°40' W 009°09'0 0.0
2019-Jun-14 21:29N 38°40' W 009°09'0 0.0
2019-Jun-14 20:59N 38°40' W 009°09'0 0.0
2019-Jun-14 20:26N 38°40' W 009°09'0 0.0
2019-Jun-14 19:56N 38°40' W 009°09'0 0.0
2019-Jun-14 19:26N 38°40' W 009°09'0 0.0
2019-Jun-14 18:56N 38°40' W 009°09'0 0.0
2019-Jun-14 18:29N 38°40' W 009°09'0 0.0
2019-Jun-14 17:56N 38°40' W 009°09'0 0.0
2019-Jun-14 17:20N 38°40' W 009°09'0 0.0
2019-Jun-14 16:56N 38°40' W 009°09'0 0.0
2019-Jun-14 16:20N 38°40' W 009°09'0 0.0
2019-Jun-14 15:59N 38°40' W 009°09'0 0.0
2019-Jun-14 15:29N 38°40' W 009°09'0 0.0
2019-Jun-14 14:59N 38°40' W 009°09'0 0.0
2019-Jun-14 14:29N 38°40' W 009°09'0 0.0
2019-Jun-14 13:59N 38°40' W 009°09'0 0.0
2019-Jun-14 13:29N 38°40' W 009°09'0 0.0
2019-Jun-14 12:59N 38°40' W 009°09'0 0.0
2019-Jun-14 12:29N 38°40' W 009°09'0 0.0
2019-Jun-14 11:59N 38°40' W 009°09'0 0.0
2019-Jun-14 11:29N 38°40' W 009°09'0 0.0
2019-Jun-14 10:59N 38°40' W 009°09'0 0.0
2019-Jun-14 10:29N 38°40' W 009°09'0 0.0
2019-Jun-14 09:59N 38°40' W 009°09'0 0.0
2019-Jun-14 09:26N 38°40' W 009°09'0 0.0
2019-Jun-14 08:59N 38°40' W 009°09'0 0.0
2019-Jun-14 08:29N 38°40' W 009°09'0 0.0
2019-Jun-14 07:59N 38°40' W 009°09'0 0.0
2019-Jun-14 07:29N 38°40' W 009°09'0 0.0
2019-Jun-14 06:56N 38°40' W 009°09'0 0.0
2019-Jun-14 06:29N 38°40' W 009°09'0 0.0
2019-Jun-14 05:59N 38°40' W 009°09'0 0.0
2019-Jun-14 05:29N 38°40' W 009°09'0 0.0
2019-Jun-14 04:59N 38°40' W 009°09'0 0.0
2019-Jun-14 04:29N 38°40' W 009°09'0 0.0
2019-Jun-14 03:56N 38°40' W 009°09'0 0.0
2019-Jun-14 03:29N 38°40' W 009°09'0 0.0
2019-Jun-14 02:59N 38°40' W 009°09'0 0.0
2019-Jun-14 02:29N 38°40' W 009°09'0 0.0
2019-Jun-14 01:59N 38°40' W 009°09'0 0.0
2019-Jun-14 01:29N 38°40' W 009°09'0 0.0
2019-Jun-14 00:59N 38°40' W 009°09'0 0.0
2019-Jun-14 00:29N 38°40' W 009°09'0 0.0
2019-Jun-13 23:59N 38°40' W 009°09'0 0.0
2019-Jun-13 23:26N 38°40' W 009°09'0 0.0
2019-Jun-13 22:59N 38°40' W 009°09'0 0.0
2019-Jun-13 22:26N 38°40' W 009°09'0 0.0
2019-Jun-13 21:59N 38°40' W 009°09'0 0.0
2019-Jun-13 21:29N 38°40' W 009°09'0 0.0
2019-Jun-13 20:59N 38°40' W 009°09'0 0.0
2019-Jun-13 20:29N 38°40' W 009°09'0 0.0
2019-Jun-13 19:59N 38°40' W 009°09'0 0.0
2019-Jun-13 19:29N 38°40' W 009°09'0 0.0
2019-Jun-13 18:59N 38°40' W 009°09'0 0.0
2019-Jun-13 18:29N 38°40' W 009°09'0 0.0
2019-Jun-13 17:59N 38°40' W 009°09'0 0.0
2019-Jun-13 17:29N 38°40' W 009°09'0 0.0
2019-Jun-13 16:59N 38°40' W 009°09'0 0.0
2019-Jun-13 16:29N 38°40' W 009°09'0 0.0
2019-Jun-13 15:59N 38°40' W 009°09'0 0.0
2019-Jun-13 15:29N 38°40' W 009°09'0 0.0
2019-Jun-13 14:53N 38°40' W 009°09'0 0.0
2019-Jun-13 14:29N 38°40' W 009°09'0 0.0
2019-Jun-13 13:59N 38°40' W 009°09'0 0.0
2019-Jun-13 13:29N 38°40' W 009°09'0 0.0
2019-Jun-13 12:59N 38°40' W 009°09'0 0.0
2019-Jun-13 12:29N 38°40' W 009°09'0 0.0
2019-Jun-13 11:59N 38°40' W 009°09'0 0.0
2019-Jun-13 11:29N 38°40' W 009°09'0 0.0
2019-Jun-13 10:59N 38°40' W 009°09'0 0.0
2019-Jun-13 10:29N 38°40' W 009°09'0 0.0
2019-Jun-13 09:59N 38°40' W 009°09'0 0.0
2019-Jun-13 09:29N 38°40' W 009°09'0 0.0
2019-Jun-13 08:59N 38°40' W 009°09'0 0.0
2019-Jun-13 08:29N 38°40' W 009°09'0 0.0
2019-Jun-13 07:59N 38°40' W 009°09'0 0.0
2019-Jun-13 07:29N 38°40' W 009°09'0 0.0
2019-Jun-13 06:59N 38°40' W 009°09'0 0.0
2019-Jun-13 06:29N 38°40' W 009°09'0 0.0
2019-Jun-13 05:59N 38°40' W 009°09'0 0.0
2019-Jun-13 05:29N 38°40' W 009°09'0 0.0
2019-Jun-13 04:59N 38°40' W 009°09'0 0.0
2019-Jun-13 04:29N 38°40' W 009°09'0 0.0
2019-Jun-13 03:59N 38°40' W 009°09'0 0.0
2019-Jun-13 03:29N 38°40' W 009°09'0 0.0
2019-Jun-13 02:59N 38°40' W 009°09'0 0.0
2019-Jun-13 02:26N 38°40' W 009°09'0 0.0
2019-Jun-13 01:59N 38°40' W 009°09'0 0.0
2019-Jun-13 01:29N 38°40' W 009°09'0 0.0
2019-Jun-13 00:56N 38°40' W 009°09'0 0.0
2019-Jun-13 00:29N 38°40' W 009°09'0 0.0
2019-Jun-12 23:59N 38°40' W 009°09'0 0.0
2019-Jun-12 23:29N 38°40' W 009°09'0 0.0
2019-Jun-12 22:59N 38°40' W 009°09'0 0.0
2019-Jun-12 22:29N 38°40' W 009°09'0 0.0
2019-Jun-12 21:59N 38°40' W 009°09'0 0.0
2019-Jun-12 21:29N 38°40' W 009°09'0 0.0
2019-Jun-12 20:59N 38°40' W 009°09'0 0.0
2019-Jun-12 20:26N 38°40' W 009°09'0 0.0
2019-Jun-12 19:56N 38°40' W 009°09'0 0.0
2019-Jun-12 19:29N 38°40' W 009°09'0 0.0
2019-Jun-12 18:59N 38°40' W 009°09'0 0.0
2019-Jun-12 18:26N 38°40' W 009°09'0 0.0
2019-Jun-12 17:50N 38°40' W 009°09'0 0.0
2019-Jun-12 17:29N 38°40' W 009°09'0 0.0
2019-Jun-12 16:59N 38°40' W 009°09'0 0.0
2019-Jun-12 16:23N 38°40' W 009°09'0 0.0
2019-Jun-12 15:59N 38°40' W 009°09'0 0.0
2019-Jun-12 15:29N 38°40' W 009°09'0 0.0
2019-Jun-12 14:59N 38°40' W 009°09'0 0.0
2019-Jun-12 14:26N 38°40' W 009°09'0 0.0
2019-Jun-12 13:59N 38°40' W 009°09'0 0.0
2019-Jun-12 13:29N 38°40' W 009°09'0 0.0
2019-Jun-12 12:59N 38°40' W 009°09'0 0.0
2019-Jun-12 12:29N 38°40' W 009°09'0 0.0
2019-Jun-12 11:56N 38°40' W 009°09'0 0.0
2019-Jun-12 11:29N 38°40' W 009°09'0 0.0
2019-Jun-12 10:59N 38°40' W 009°09'0 0.0
2019-Jun-12 10:23N 38°40' W 009°09'0 0.0
2019-Jun-12 09:56N 38°40' W 009°09'0 0.0
2019-Jun-12 09:29N 38°40' W 009°09'0 0.0
2019-Jun-12 08:59N 38°40' W 009°09'0 0.0
2019-Jun-12 08:29N 38°40' W 009°09'0 0.0
2019-Jun-12 07:59N 38°40' W 009°09'0 0.0
2019-Jun-12 07:26N 38°40' W 009°09'0 0.0
2019-Jun-12 06:59N 38°40' W 009°09'0 0.0
2019-Jun-12 06:29N 38°40' W 009°09'0 0.0
2019-Jun-12 05:59N 38°40' W 009°09'0 0.0
2019-Jun-12 05:29N 38°40' W 009°09'0 0.0
2019-Jun-12 04:59N 38°40' W 009°09'0 0.0
2019-Jun-12 04:20N 38°40' W 009°09'0 0.0
2019-Jun-12 03:59N 38°40' W 009°09'0 0.0
2019-Jun-12 03:29N 38°40' W 009°09'0 0.0
2019-Jun-12 02:59N 38°40' W 009°09'0 0.0
2019-Jun-12 01:59N 38°40' W 009°09'0 0.0
2019-Jun-12 01:29N 38°40' W 009°09'0 0.0
2019-Jun-12 00:59N 38°40' W 009°09'0 0.0
2019-Jun-12 00:26N 38°40' W 009°09'0 0.0
2019-Jun-11 23:59N 38°40' W 009°09'0 0.0
2019-Jun-11 23:26N 38°40' W 009°09'0 0.0
2019-Jun-11 22:59N 38°40' W 009°09'0 0.0
2019-Jun-11 22:29N 38°40' W 009°09'0 0.0
2019-Jun-11 21:59N 38°40' W 009°09'0 0.0
2019-Jun-11 21:29N 38°40' W 009°09'0 0.0
2019-Jun-11 20:59N 38°40' W 009°09'0 0.0
2019-Jun-11 20:29N 38°40' W 009°09'0 0.0
2019-Jun-11 19:59N 38°40' W 009°09'0 0.0
2019-Jun-11 19:29N 38°40' W 009°09'0 0.0
2019-Jun-11 18:59N 38°40' W 009°09'0 0.0
2019-Jun-11 18:29N 38°40' W 009°09'0 0.0
2019-Jun-11 17:59N 38°40' W 009°09'0 0.0
2019-Jun-11 17:29N 38°40' W 009°09'0 0.0
2019-Jun-11 16:59N 38°40' W 009°09'0 0.0
2019-Jun-11 16:29N 38°40' W 009°09'0 0.0
2019-Jun-11 15:59N 38°40' W 009°09'0 0.0
2019-Jun-11 15:26N 38°40' W 009°09'0 0.0
2019-Jun-11 14:53N 38°40' W 009°09'0 0.0
2019-Jun-11 14:29N 38°40' W 009°09'0 0.0
2019-Jun-11 13:59N 38°40' W 009°09'0 0.0
2019-Jun-11 13:29N 38°40' W 009°09'0 0.0
2019-Jun-11 12:59N 38°40' W 009°09'0 0.0
2019-Jun-11 12:26N 38°40' W 009°09'0 0.0
2019-Jun-11 11:59N 38°40' W 009°09'0 0.0
2019-Jun-11 11:29N 38°40' W 009°09'0 0.0
2019-Jun-11 10:59N 38°40' W 009°09'0 0.0
2019-Jun-11 10:29N 38°40' W 009°09'0 0.0
2019-Jun-11 09:56N 38°40' W 009°09'0 0.0
2019-Jun-11 09:29N 38°40' W 009°09'0 0.0
2019-Jun-11 08:59N 38°40' W 009°09'0 0.0
2019-Jun-11 08:29N 38°40' W 009°09'0 0.0
2019-Jun-11 07:53N 38°40' W 009°09'0 0.0
2019-Jun-11 07:26N 38°40' W 009°09'0 0.0
2019-Jun-11 06:59N 38°40' W 009°09'0 0.0
2019-Jun-11 06:29N 38°40' W 009°09'0 0.0
2019-Jun-11 05:59N 38°40' W 009°09'0 0.0
2019-Jun-11 05:29N 38°40' W 009°09'0 0.0
2019-Jun-11 04:59N 38°40' W 009°09'0 0.0
2019-Jun-11 04:29N 38°40' W 009°09'0 0.0
2019-Jun-11 03:59N 38°40' W 009°09'0 0.0
2019-Jun-11 03:29N 38°40' W 009°09'0 0.0
2019-Jun-11 02:59N 38°40' W 009°09'0 0.0
2019-Jun-11 02:29N 38°40' W 009°09'0 0.0
2019-Jun-11 01:59N 38°40' W 009°09'0 0.0
2019-Jun-11 01:29N 38°40' W 009°09'0 0.0
2019-Jun-11 00:59N 38°40' W 009°09'0 0.0
2019-Jun-11 00:29N 38°40' W 009°09'0 0.0
2019-Jun-10 23:59N 38°40' W 009°09'0 0.0
2019-Jun-10 23:29N 38°40' W 009°09'0 0.0
2019-Jun-10 22:59N 38°40' W 009°09'0 0.0
2019-Jun-10 22:29N 38°40' W 009°09'0 0.0
2019-Jun-10 21:59N 38°40' W 009°09'0 0.0
2019-Jun-10 21:29N 38°40' W 009°09'0 0.0
2019-Jun-10 20:59N 38°40' W 009°09'0 0.0
2019-Jun-10 20:29N 38°40' W 009°09'0 0.0
2019-Jun-10 19:59N 38°40' W 009°09'0 0.0
2019-Jun-10 19:29N 38°40' W 009°09'0 0.0
2019-Jun-10 18:59N 38°40' W 009°09'0 0.0
2019-Jun-10 18:26N 38°40' W 009°09'0 0.0
2019-Jun-10 17:59N 38°40' W 009°09'0 0.0
2019-Jun-10 17:29N 38°40' W 009°09'0 0.0
2019-Jun-10 16:59N 38°40' W 009°09'0 0.0
2019-Jun-10 16:29N 38°40' W 009°09'0 0.0
2019-Jun-10 15:59N 38°40' W 009°09'0 0.0
2019-Jun-10 15:29N 38°40' W 009°09'0 0.0
2019-Jun-10 14:59N 38°40' W 009°09'0 0.0
2019-Jun-10 14:29N 38°40' W 009°09'0 0.0
2019-Jun-10 13:59N 38°40' W 009°09'0 0.0
2019-Jun-10 13:29N 38°40' W 009°09'0 0.0
2019-Jun-10 12:59N 38°40' W 009°09'0 0.0
2019-Jun-10 12:29N 38°40' W 009°09'0 0.0
2019-Jun-10 11:59N 38°40' W 009°09'0 0.0
2019-Jun-10 11:23N 38°40' W 009°09'0 0.0
2019-Jun-10 10:56N 38°40' W 009°09'0 0.0
2019-Jun-10 10:29N 38°40' W 009°09'0 0.0
2019-Jun-10 09:59N 38°40' W 009°09'0 0.0
2019-Jun-10 09:29N 38°40' W 009°09'0 0.0
2019-Jun-10 08:59N 38°40' W 009°09'0 0.0
2019-Jun-10 08:29N 38°40' W 009°09'0 0.0
2019-Jun-10 07:59N 38°40' W 009°09'0 0.0
2019-Jun-10 07:29N 38°40' W 009°09'0 0.0
2019-Jun-10 06:59N 38°40' W 009°09'0 0.0
2019-Jun-10 06:29N 38°40' W 009°09'0 0.0
2019-Jun-10 05:59N 38°40' W 009°09'0 0.0
2019-Jun-10 05:29N 38°40' W 009°09'0 0.0
2019-Jun-10 04:59N 38°40' W 009°09'0 0.0
2019-Jun-10 04:29N 38°40' W 009°09'0 0.0
2019-Jun-10 03:59N 38°40' W 009°09'0 0.0
2019-Jun-10 03:29N 38°40' W 009°09'0 0.0
2019-Jun-10 02:59N 38°40' W 009°09'0 0.0
2019-Jun-10 02:29N 38°40' W 009°09'0 0.0
2019-Jun-10 01:59N 38°40' W 009°09'0 0.0
2019-Jun-10 01:29N 38°40' W 009°09'0 0.0
2019-Jun-10 00:53N 38°40' W 009°09'0 0.0
2019-Jun-10 00:26N 38°40' W 009°09'0 0.0
2019-Jun-09 23:59N 38°40' W 009°09'0 0.0
2019-Jun-09 23:29N 38°40' W 009°09'0 0.0
2019-Jun-09 22:53N 38°40' W 009°09'0 0.0
2019-Jun-09 22:29N 38°40' W 009°09'0 0.0
2019-Jun-09 21:59N 38°40' W 009°09'0 0.0
2019-Jun-09 21:29N 38°40' W 009°09'0 0.0
2019-Jun-09 20:59N 38°40' W 009°09'0 0.0
2019-Jun-09 20:29N 38°40' W 009°09'0 0.0
2019-Jun-09 19:59N 38°40' W 009°09'0 0.0
2019-Jun-09 19:29N 38°40' W 009°09'0 0.0
2019-Jun-09 18:59N 38°40' W 009°09'0 0.0
2019-Jun-09 18:29N 38°40' W 009°09'0 0.0
2019-Jun-09 17:59N 38°40' W 009°09'0 0.0
2019-Jun-09 17:26N 38°40' W 009°09'0 0.0
2019-Jun-09 16:08N 38°40' W 009°09'0 0.0
2019-Jun-09 13:41N 38°40' W 009°09'0 0.0
2019-Jun-09 12:17N 38°40' W 009°09'0 0.0
2019-Jun-09 10:47N 38°40' W 009°09'0 0.0
2019-Jun-09 10:23N 38°40' W 009°09'0 0.0
2019-Jun-09 09:59N 38°40' W 009°09'0 0.0
2019-Jun-09 09:26N 38°40' W 009°09'0 0.0
2019-Jun-09 08:56N 38°40' W 009°09'0 0.0
2019-Jun-09 08:30N 38°40' W 009°09'0 0.0
2019-Jun-09 08:00N 38°40' W 009°09'0 0.0
2019-Jun-09 06:23N 38°40' W 009°09'0 0.0
2019-Jun-09 04:50N 38°40' W 009°09'0 0.0
2019-Jun-09 02:35N 38°40' W 009°09'0 0.0
2019-Jun-08 23:51N 38°40' W 009°09'0 0.0
2019-Jun-08 20:04N 38°40' W 009°09'0 0.0
2019-Jun-08 19:05N 38°40' W 009°09'0 0.0
2019-Jun-08 18:26N 38°40' W 009°09'0 0.0
2019-Jun-08 15:05N 38°40' W 009°09'0 0.0
2019-Jun-08 14:02N 38°40' W 009°09'0 0.0
2019-Jun-08 13:17N 38°40' W 009°09'0 0.0
2019-Jun-08 11:59N 38°40' W 009°09'0 0.0
2019-Jun-08 11:14N 38°40' W 009°09'0 0.0
2019-Jun-08 10:11N 38°40' W 009°09'0 0.0
2019-Jun-08 09:35N 38°40' W 009°09'0 0.0
2019-Jun-08 08:53N 38°40' W 009°09'0 0.0
2019-Jun-08 08:05N 38°40' W 009°09'0 0.0
2019-Jun-08 07:44N 38°40' W 009°09'0 0.0
2019-Jun-08 07:17N 38°40' W 009°09'0 0.0
2019-Jun-08 06:56N 38°40' W 009°09'0 0.0
2019-Jun-08 06:26N 38°40' W 009°09'0 0.0
2019-Jun-08 05:44N 38°40' W 009°09'0 0.0
2019-Jun-08 04:05N 38°40' W 009°09'0 0.0
2019-Jun-08 03:53N 38°40' W 009°09'0 0.0
2019-Jun-08 03:23N 38°40' W 009°09'0 0.0
2019-Jun-08 02:59N 38°40' W 009°09'0 0.0
2019-Jun-08 02:29N 38°40' W 009°09'0 0.0
2019-Jun-08 00:56N 38°40' W 009°09'0 0.0
2019-Jun-08 00:29N 38°40' W 009°09'0 0.0
2019-Jun-07 23:59N 38°40' W 009°09'0 0.0
2019-Jun-07 22:17N 38°40' W 009°09'0 0.0
2019-Jun-07 19:59N 38°40' W 009°09'0 0.0
2019-Jun-07 18:05N 38°40' W 009°09'0 0.0
2019-Jun-07 17:56N 38°40' W 009°09'0 0.0
2019-Jun-07 17:23N 38°40' W 009°09'0 0.0
2019-Jun-07 16:35N 38°40' W 009°09'0 0.0
2019-Jun-07 16:05N 38°40' W 009°09'0 0.0
2019-Jun-07 15:59N 38°40' W 009°09'0 0.0
2019-Jun-07 15:23N 38°40' W 009°09'0 0.0
2019-Jun-07 14:29N 38°40' W 009°09'0 0.0
2019-Jun-07 13:59N 38°40' W 009°09'0 0.0
2019-Jun-07 13:26N 38°40' W 009°09'0 0.0
2019-Jun-07 12:59N 38°40' W 009°09'0 0.0
2019-Jun-07 12:29N 38°40' W 009°09'0 0.0
2019-Jun-07 11:59N 38°40' W 009°09'0 0.0
2019-Jun-07 11:26N 38°40' W 009°09'0 0.0
2019-Jun-07 10:56N 38°40' W 009°09'0 0.0
2019-Jun-07 10:29N 38°40' W 009°09'0 0.0
2019-Jun-07 09:56N 38°40' W 009°09'0 0.0
2019-Jun-07 09:29N 38°40' W 009°09'0 0.0
2019-Jun-07 08:59N 38°40' W 009°09'0 0.0
2019-Jun-07 08:29N 38°40' W 009°09'0 0.0
2019-Jun-07 07:56N 38°40' W 009°09'0 0.0
2019-Jun-07 07:29N 38°40' W 009°09'0 0.0
2019-Jun-07 07:00N 38°40' W 009°09'0 0.0
2019-Jun-07 06:29N 38°40' W 009°09'0 0.0
2019-Jun-07 05:59N 38°40' W 009°09'0 0.0
2019-Jun-07 05:29N 38°40' W 009°09'0 0.0
2019-Jun-07 04:53N 38°40' W 009°09'0 0.0
2019-Jun-07 04:29N 38°40' W 009°09'0 0.0
2019-Jun-07 03:59N 38°40' W 009°09'0 0.0
2019-Jun-07 03:29N 38°40' W 009°09'0 0.0
2019-Jun-07 02:59N 38°40' W 009°09'0 0.0
2019-Jun-07 02:29N 38°40' W 009°09'0 0.0
2019-Jun-07 01:56N 38°40' W 009°09'0 0.0
2019-Jun-07 01:29N 38°40' W 009°09'0 0.0
2019-Jun-07 00:56N 38°40' W 009°09'0 0.0
2019-Jun-07 00:29N 38°40' W 009°09'0 0.0
2019-Jun-06 23:59N 38°40' W 009°09'0 0.0
2019-Jun-06 22:59N 38°40' W 009°09'0 0.0
2019-Jun-06 22:29N 38°40' W 009°09'  
Track history (hours):
 
Tides and Currents Weather Stations Pressure Air Temp Water Temp Dewpoint Dewpoint Depression Visibility Wind Speed Wind Dir Waves Ship Positions

Oceanographic research ship Andrómeda (Portugal)

Detailed information on ship capabilities available from University of Delaware's Ocean Information Center.

Last reported at 2019-Jun-19 21:25 UTC. Time now 2019-Jun-19 21:56 UTC.
Position N 38°26' W 009°07'.

Length 32 m; draft 3 m.

Type: Dredging. MMSI: 263139000.

Date/timePositionNaut miles runAvg speedWind from/ knotsBaromVisibWave heightAir tempDewpointWater temp
2019-Jun-19 21:25N 38°26' W 009°07'0 0.0
2019-Jun-19 20:58N 38°26' W 009°07'0 0.0
2019-Jun-19 20:28N 38°26' W 009°07'0 0.0
2019-Jun-19 19:58N 38°26' W 009°07'0 0.0
2019-Jun-19 19:22N 38°26' W 009°07'0 0.0
2019-Jun-19 18:58N 38°26' W 009°07'0 0.0
2019-Jun-19 18:29N 38°26' W 009°07'3 5.2
2019-Jun-19 18:00N 38°24' W 009°08'4 8.2
2019-Jun-19 17:31N 38°23' W 009°13'0 0.1
2019-Jun-19 17:00N 38°24' W 009°13'1 3.0
2019-Jun-19 16:31N 38°24' W 009°12'1 2.2
2019-Jun-19 16:01N 38°23' W 009°13'2 4.3
2019-Jun-19 15:30N 38°24' W 009°10'1 1.0
2019-Jun-19 15:00N 38°24' W 009°11'1 2.9
2019-Jun-19 14:30N 38°24' W 009°09'0 0.8
2019-Jun-19 13:59N 38°24' W 009°10'1 2.0
2019-Jun-19 13:30N 38°24' W 009°08'1 1.3
2019-Jun-19 13:00N 38°23' W 009°08'1 2.5
2019-Jun-19 12:30N 38°24' W 009°07'0 0.4
2019-Jun-19 11:58N 38°24' W 009°07'1 2.8
2019-Jun-19 11:30N 38°24' W 009°05'2 3.0
2019-Jun-19 11:00N 38°25' W 009°04'0 0.8
2019-Jun-19 10:31N 38°25' W 009°04'0 0.2
2019-Jun-19 10:00N 38°25' W 009°04'1 2.4
2019-Jun-19 09:30N 38°25' W 009°06'1 2.2
2019-Jun-19 09:00N 38°25' W 009°07'1 1.1
2019-Jun-19 08:30N 38°25' W 009°07'0 0.2
2019-Jun-19 08:00N 38°25' W 009°06'1 2.2
2019-Jun-19 07:29N 38°26' W 009°07'0 0.0
2019-Jun-18 17:31N 38°26' W 009°07'0 0.0
2019-Jun-18 17:30N 38°26' W 009°07'0 0.0
2019-Jun-18 17:00N 38°26' W 009°07'0 0.5
2019-Jun-18 16:31N 38°26' W 009°06'1 1.9
2019-Jun-18 16:01N 38°25' W 009°06'1 1.7
2019-Jun-18 15:31N 38°25' W 009°06'1 1.5
2019-Jun-18 15:00N 38°25' W 009°05'1 1.9
2019-Jun-18 14:30N 38°25' W 009°04'1 1.8
2019-Jun-18 14:00N 38°25' W 009°03'1 1.8
2019-Jun-18 13:31N 38°26' W 009°02'0 0.4
2019-Jun-18 13:01N 38°25' W 009°02'1 2.0
2019-Jun-18 12:31N 38°25' W 009°03'1 1.6
2019-Jun-18 12:01N 38°25' W 009°04'1 1.6
2019-Jun-18 11:31N 38°25' W 009°05'1 1.5
2019-Jun-18 11:01N 38°25' W 009°06'1 1.7
2019-Jun-18 10:31N 38°24' W 009°07'1 2.0
2019-Jun-18 10:01N 38°24' W 009°08'1 1.4
2019-Jun-18 09:29N 38°24' W 009°07'1 2.1
2019-Jun-18 09:01N 38°25' W 009°06'2 3.2
2019-Jun-18 08:29N 38°26' W 009°07'0 0.0
2019-Jun-18 07:59N 38°26' W 009°07'0 0.0
2019-Jun-18 07:29N 38°26' W 009°07'0 0.0
2019-Jun-18 07:00N 38°26' W 009°07'0 0.0
2019-Jun-18 06:30N 38°26' W 009°07'0 0.0
2019-Jun-18 06:00N 38°26' W 009°07'0 0.0
2019-Jun-18 05:30N 38°26' W 009°07'0 0.0
2019-Jun-18 05:00N 38°26' W 009°07'0 0.0
2019-Jun-18 04:30N 38°26' W 009°07'0 0.0
2019-Jun-18 04:00N 38°26' W 009°07'0 0.0
2019-Jun-18 03:30N 38°26' W 009°07'0 0.0
2019-Jun-18 03:00N 38°26' W 009°07'0 0.0
2019-Jun-18 02:30N 38°26' W 009°07'0 0.0
2019-Jun-18 02:00N 38°26' W 009°07'0 0.0
2019-Jun-18 01:30N 38°26' W 009°07'0 0.0
2019-Jun-18 01:00N 38°26' W 009°07'0 0.0
2019-Jun-18 00:30N 38°26' W 009°07'0 0.0
2019-Jun-18 00:00N 38°26' W 009°07'0 0.0
2019-Jun-17 23:30N 38°26' W 009°07'0 0.0
2019-Jun-17 23:00N 38°26' W 009°07'0 0.0
2019-Jun-17 22:30N 38°26' W 009°07'0 0.0
2019-Jun-17 22:00N 38°26' W 009°07'0 0.0
2019-Jun-17 21:48N 38°26' W 009°07'0 0.0
2019-Jun-17 21:45N 38°26' W 009°07'0 0.0
2019-Jun-17 21:37N 38°26' W 009°07'0 0.0
2019-Jun-17 21:21N 38°26' W 009°07'0 0.0
2019-Jun-17 21:00N 38°26' W 009°07'0 0.4
2019-Jun-17 20:30N 38°26' W 009°06'5 9.0
2019-Jun-17 20:00N 38°24' W 009°11'17 0.8
2019-Jun-16 23:29N 38°40' W 009°09'0 0.0
2019-Jun-16 22:59N 38°40' W 009°09'0 0.0
2019-Jun-16 22:26N 38°40' W 009°09'0 0.0
2019-Jun-16 21:59N 38°40' W 009°09'0 0.0
2019-Jun-16 21:29N 38°40' W 009°09'0 0.0
2019-Jun-16 20:56N 38°40' W 009°09'0 0.0
2019-Jun-16 20:29N 38°40' W 009°09'0 0.0
2019-Jun-16 19:59N 38°40' W 009°09'0 0.0
2019-Jun-16 19:29N 38°40' W 009°09'0 0.0
2019-Jun-16 18:59N 38°40' W 009°09'0 0.0
2019-Jun-16 18:29N 38°40' W 009°09'0 0.0
2019-Jun-16 17:59N 38°40' W 009°09'0 0.0
2019-Jun-16 17:29N 38°40' W 009°09'0 0.0
2019-Jun-16 16:59N 38°40' W 009°09'0 0.0
2019-Jun-16 16:29N 38°40' W 009°09'0 0.0
2019-Jun-16 15:59N 38°40' W 009°09'0 0.0
2019-Jun-16 15:29N 38°40' W 009°09'0 0.0
2019-Jun-16 14:59N 38°40' W 009°09'0 0.0
2019-Jun-16 14:29N 38°40' W 009°09'0 0.0
2019-Jun-16 13:59N 38°40' W 009°09'0 0.0
2019-Jun-16 13:29N 38°40' W 009°09'0 0.0
2019-Jun-16 12:53N 38°40' W 009°09'0 0.0
2019-Jun-16 12:29N 38°40' W 009°09'0 0.0
2019-Jun-16 11:59N 38°40' W 009°09'0 0.0
2019-Jun-16 11:29N 38°40' W 009°09'0 0.0
2019-Jun-16 10:59N 38°40' W 009°09'0 0.0
2019-Jun-16 10:29N 38°40' W 009°09'0 0.0
2019-Jun-16 09:59N 38°40' W 009°09'0 0.0
2019-Jun-16 09:29N 38°40' W 009°09'0 0.0
2019-Jun-16 08:59N 38°40' W 009°09'0 0.0
2019-Jun-16 08:29N 38°40' W 009°09'0 0.0
2019-Jun-16 07:59N 38°40' W 009°09'0 0.0
2019-Jun-16 07:29N 38°40' W 009°09'0 0.0
2019-Jun-16 06:59N 38°40' W 009°09'0 0.0
2019-Jun-16 06:29N 38°40' W 009°09'0 0.0
2019-Jun-16 05:59N 38°40' W 009°09'0 0.0
2019-Jun-16 05:29N 38°40' W 009°09'0 0.0
2019-Jun-16 04:59N 38°40' W 009°09'0 0.0
2019-Jun-16 04:29N 38°40' W 009°09'0 0.0
2019-Jun-16 03:59N 38°40' W 009°09'0 0.0
2019-Jun-16 03:29N 38°40' W 009°09'0 0.0
2019-Jun-16 02:59N 38°40' W 009°09'0 0.0
2019-Jun-16 02:29N 38°40' W 009°09'0 0.0
2019-Jun-16 01:59N 38°40' W 009°09'0 0.0
2019-Jun-16 01:26N 38°40' W 009°09'0 0.0
2019-Jun-16 00:59N 38°40' W 009°09'0 0.0
2019-Jun-16 00:29N 38°40' W 009°09'0 0.0
2019-Jun-15 23:59N 38°40' W 009°09'0 0.0
2019-Jun-15 23:29N 38°40' W 009°09'0 0.0
2019-Jun-15 22:59N 38°40' W 009°09'0 0.0
2019-Jun-15 22:29N 38°40' W 009°09'0 0.0
2019-Jun-15 21:59N 38°40' W 009°09'0 0.0
2019-Jun-15 21:29N 38°40' W 009°09'0 0.0
2019-Jun-15 20:59N 38°40' W 009°09'0 0.0
2019-Jun-15 20:29N 38°40' W 009°09'0 0.0
2019-Jun-15 19:56N 38°40' W 009°09'0 0.0
2019-Jun-15 19:29N 38°40' W 009°09'0 0.0
2019-Jun-15 18:56N 38°40' W 009°09'0 0.0
2019-Jun-15 18:29N 38°40' W 009°09'0 0.0
2019-Jun-15 17:59N 38°40' W 009°09'0 0.0
2019-Jun-15 17:29N 38°40' W 009°09'0 0.0
2019-Jun-15 16:59N 38°40' W 009°09'0 0.0
2019-Jun-15 16:29N 38°40' W 009°09'0 0.0
2019-Jun-15 15:59N 38°40' W 009°09'0 0.0
2019-Jun-15 15:29N 38°40' W 009°09'0 0.0
2019-Jun-15 14:56N 38°40' W 009°09'0 0.0
2019-Jun-15 14:26N 38°40' W 009°09'0 0.0
2019-Jun-15 13:59N 38°40' W 009°09'0 0.0
2019-Jun-15 13:29N 38°40' W 009°09'0 0.0
2019-Jun-15 12:56N 38°40' W 009°09'0 0.0
2019-Jun-15 12:29N 38°40' W 009°09'0 0.0
2019-Jun-15 11:59N 38°40' W 009°09'0 0.0
2019-Jun-15 11:29N 38°40' W 009°09'0 0.0
2019-Jun-15 10:56N 38°40' W 009°09'0 0.0
2019-Jun-15 10:23N 38°40' W 009°09'0 0.0
2019-Jun-15 09:56N 38°40' W 009°09'0 0.0
2019-Jun-15 09:29N 38°40' W 009°09'0 0.0
2019-Jun-15 08:59N 38°40' W 009°09'0 0.0
2019-Jun-15 08:29N 38°40' W 009°09'0 0.0
2019-Jun-15 07:59N 38°40' W 009°09'0 0.0
2019-Jun-15 07:29N 38°40' W 009°09'0 0.0
2019-Jun-15 06:59N 38°40' W 009°09'0 0.0
2019-Jun-15 06:29N 38°40' W 009°09'0 0.0
2019-Jun-15 05:59N 38°40' W 009°09'0 0.0
2019-Jun-15 05:29N 38°40' W 009°09'0 0.0
2019-Jun-15 04:59N 38°40' W 009°09'0 0.0
2019-Jun-15 04:29N 38°40' W 009°09'0 0.0
2019-Jun-15 03:59N 38°40' W 009°09'0 0.0
2019-Jun-15 03:29N 38°40' W 009°09'0 0.0
2019-Jun-15 02:59N 38°40' W 009°09'0 0.0
2019-Jun-15 02:29N 38°40' W 009°09'0 0.0
2019-Jun-15 01:59N 38°40' W 009°09'0 0.0
2019-Jun-15 01:29N 38°40' W 009°09'0 0.0
2019-Jun-15 00:59N 38°40' W 009°09'0 0.0
2019-Jun-15 00:29N 38°40' W 009°09'0 0.0
2019-Jun-14 23:59N 38°40' W 009°09'0 0.0
2019-Jun-14 23:29N 38°40' W 009°09'0 0.0
2019-Jun-14 22:56N 38°40' W 009°09'0 0.0
2019-Jun-14 22:29N 38°40' W 009°09'0 0.0
2019-Jun-14 21:59N 38°40' W 009°09'0 0.0
2019-Jun-14 21:29N 38°40' W 009°09'0 0.0
2019-Jun-14 20:59N 38°40' W 009°09'0 0.0
2019-Jun-14 20:26N 38°40' W 009°09'0 0.0
2019-Jun-14 19:56N 38°40' W 009°09'0 0.0
2019-Jun-14 19:26N 38°40' W 009°09'0 0.0
2019-Jun-14 18:56N 38°40' W 009°09'0 0.0
2019-Jun-14 18:29N 38°40' W 009°09'0 0.0
2019-Jun-14 17:56N 38°40' W 009°09'0 0.0
2019-Jun-14 17:20N 38°40' W 009°09'0 0.0
2019-Jun-14 16:56N 38°40' W 009°09'0 0.0
2019-Jun-14 16:20N 38°40' W 009°09'0 0.0
2019-Jun-14 15:59N 38°40' W 009°09'0 0.0
2019-Jun-14 15:29N 38°40' W 009°09'0 0.0
2019-Jun-14 14:59N 38°40' W 009°09'0 0.0
2019-Jun-14 14:29N 38°40' W 009°09'0 0.0
2019-Jun-14 13:59N 38°40' W 009°09'0 0.0
2019-Jun-14 13:29N 38°40' W 009°09'0 0.0
2019-Jun-14 12:59N 38°40' W 009°09'0 0.0
2019-Jun-14 12:29N 38°40' W 009°09'0 0.0
2019-Jun-14 11:59N 38°40' W 009°09'0 0.0
2019-Jun-14 11:29N 38°40' W 009°09'0 0.0
2019-Jun-14 10:59N 38°40' W 009°09'0 0.0
2019-Jun-14 10:29N 38°40' W 009°09'0 0.0
2019-Jun-14 09:59N 38°40' W 009°09'0 0.0
2019-Jun-14 09:26N 38°40' W 009°09'0 0.0
2019-Jun-14 08:59N 38°40' W 009°09'0 0.0
2019-Jun-14 08:29N 38°40' W 009°09'0 0.0
2019-Jun-14 07:59N 38°40' W 009°09'0 0.0
2019-Jun-14 07:29N 38°40' W 009°09'0 0.0
2019-Jun-14 06:56N 38°40' W 009°09'0 0.0
2019-Jun-14 06:29N 38°40' W 009°09'0 0.0
2019-Jun-14 05:59N 38°40' W 009°09'0 0.0
2019-Jun-14 05:29N 38°40' W 009°09'0 0.0
2019-Jun-14 04:59N 38°40' W 009°09'0 0.0
2019-Jun-14 04:29N 38°40' W 009°09'0 0.0
2019-Jun-14 03:56N 38°40' W 009°09'0 0.0
2019-Jun-14 03:29N 38°40' W 009°09'0 0.0
2019-Jun-14 02:59N 38°40' W 009°09'0 0.0
2019-Jun-14 02:29N 38°40' W 009°09'0 0.0
2019-Jun-14 01:59N 38°40' W 009°09'0 0.0
2019-Jun-14 01:29N 38°40' W 009°09'0 0.0
2019-Jun-14 00:59N 38°40' W 009°09'0 0.0
2019-Jun-14 00:29N 38°40' W 009°09'0 0.0
2019-Jun-13 23:59N 38°40' W 009°09'0 0.0
2019-Jun-13 23:26N 38°40' W 009°09'0 0.0
2019-Jun-13 22:59N 38°40' W 009°09'0 0.0
2019-Jun-13 22:26N 38°40' W 009°09'0 0.0
2019-Jun-13 21:59N 38°40' W 009°09'0 0.0
2019-Jun-13 21:29N 38°40' W 009°09'0 0.0
2019-Jun-13 20:59N 38°40' W 009°09'0 0.0
2019-Jun-13 20:29N 38°40' W 009°09'0 0.0
2019-Jun-13 19:59N 38°40' W 009°09'0 0.0
2019-Jun-13 19:29N 38°40' W 009°09'0 0.0
2019-Jun-13 18:59N 38°40' W 009°09'0 0.0
2019-Jun-13 18:29N 38°40' W 009°09'0 0.0
2019-Jun-13 17:59N 38°40' W 009°09'0 0.0
2019-Jun-13 17:29N 38°40' W 009°09'0 0.0
2019-Jun-13 16:59N 38°40' W 009°09'0 0.0
2019-Jun-13 16:29N 38°40' W 009°09'0 0.0
2019-Jun-13 15:59N 38°40' W 009°09'0 0.0
2019-Jun-13 15:29N 38°40' W 009°09'0 0.0
2019-Jun-13 14:53N 38°40' W 009°09'0 0.0
2019-Jun-13 14:29N 38°40' W 009°09'0 0.0
2019-Jun-13 13:59N 38°40' W 009°09'0 0.0
2019-Jun-13 13:29N 38°40' W 009°09'0 0.0
2019-Jun-13 12:59N 38°40' W 009°09'0 0.0
2019-Jun-13 12:29N 38°40' W 009°09'0 0.0
2019-Jun-13 11:59N 38°40' W 009°09'0 0.0
2019-Jun-13 11:29N 38°40' W 009°09'0 0.0
2019-Jun-13 10:59N 38°40' W 009°09'0 0.0
2019-Jun-13 10:29N 38°40' W 009°09'0 0.0
2019-Jun-13 09:59N 38°40' W 009°09'0 0.0
2019-Jun-13 09:29N 38°40' W 009°09'0 0.0
2019-Jun-13 08:59N 38°40' W 009°09'0 0.0
2019-Jun-13 08:29N 38°40' W 009°09'0 0.0
2019-Jun-13 07:59N 38°40' W 009°09'0 0.0
2019-Jun-13 07:29N 38°40' W 009°09'0 0.0
2019-Jun-13 06:59N 38°40' W 009°09'0 0.0
2019-Jun-13 06:29N 38°40' W 009°09'0 0.0
2019-Jun-13 05:59N 38°40' W 009°09'0 0.0
2019-Jun-13 05:29N 38°40' W 009°09'0 0.0
2019-Jun-13 04:59N 38°40' W 009°09'0 0.0
2019-Jun-13 04:29N 38°40' W 009°09'0 0.0
2019-Jun-13 03:59N 38°40' W 009°09'0 0.0
2019-Jun-13 03:29N 38°40' W 009°09'0 0.0
2019-Jun-13 02:59N 38°40' W 009°09'0 0.0
2019-Jun-13 02:26N 38°40' W 009°09'0 0.0
2019-Jun-13 01:59N 38°40' W 009°09'0 0.0
2019-Jun-13 01:29N 38°40' W 009°09'0 0.0
2019-Jun-13 00:56N 38°40' W 009°09'0 0.0
2019-Jun-13 00:29N 38°40' W 009°09'0 0.0
2019-Jun-12 23:59N 38°40' W 009°09'0 0.0
2019-Jun-12 23:29N 38°40' W 009°09'0 0.0
2019-Jun-12 22:59N 38°40' W 009°09'0 0.0
2019-Jun-12 22:29N 38°40' W 009°09'0 0.0
2019-Jun-12 21:59N 38°40' W 009°09'0 0.0
2019-Jun-12 21:29N 38°40' W 009°09'0 0.0
2019-Jun-12 20:59N 38°40' W 009°09'0 0.0
2019-Jun-12 20:26N 38°40' W 009°09'0 0.0
2019-Jun-12 19:56N 38°40' W 009°09'0 0.0
2019-Jun-12 19:29N 38°40' W 009°09'0 0.0
2019-Jun-12 18:59N 38°40' W 009°09'0 0.0
2019-Jun-12 18:26N 38°40' W 009°09'0 0.0
2019-Jun-12 17:50N 38°40' W 009°09'0 0.0
2019-Jun-12 17:29N 38°40' W 009°09'0 0.0
2019-Jun-12 16:59N 38°40' W 009°09'0 0.0
2019-Jun-12 16:23N 38°40' W 009°09'0 0.0
2019-Jun-12 15:59N 38°40' W 009°09'0 0.0
2019-Jun-12 15:29N 38°40' W 009°09'0 0.0
2019-Jun-12 14:59N 38°40' W 009°09'0 0.0
2019-Jun-12 14:26N 38°40' W 009°09'0 0.0
2019-Jun-12 13:59N 38°40' W 009°09'0 0.0
2019-Jun-12 13:29N 38°40' W 009°09'0 0.0
2019-Jun-12 12:59N 38°40' W 009°09'0 0.0
2019-Jun-12 12:29N 38°40' W 009°09'0 0.0
2019-Jun-12 11:56N 38°40' W 009°09'0 0.0
2019-Jun-12 11:29N 38°40' W 009°09'0 0.0
2019-Jun-12 10:59N 38°40' W 009°09'0 0.0
2019-Jun-12 10:23N 38°40' W 009°09'0 0.0
2019-Jun-12 09:56N 38°40' W 009°09'0 0.0
2019-Jun-12 09:29N 38°40' W 009°09'0 0.0
2019-Jun-12 08:59N 38°40' W 009°09'0 0.0
2019-Jun-12 08:29N 38°40' W 009°09'0 0.0
2019-Jun-12 07:59N 38°40' W 009°09'0 0.0
2019-Jun-12 07:26N 38°40' W 009°09'0 0.0
2019-Jun-12 06:59N 38°40' W 009°09'0 0.0
2019-Jun-12 06:29N 38°40' W 009°09'0 0.0
2019-Jun-12 05:59N 38°40' W 009°09'0 0.0
2019-Jun-12 05:29N 38°40' W 009°09'0 0.0
2019-Jun-12 04:59N 38°40' W 009°09'0 0.0
2019-Jun-12 04:20N 38°40' W 009°09'0 0.0
2019-Jun-12 03:59N 38°40' W 009°09'0 0.0
2019-Jun-12 03:29N 38°40' W 009°09'0 0.0
2019-Jun-12 02:59N 38°40' W 009°09'0 0.0
2019-Jun-12 01:59N 38°40' W 009°09'0 0.0
2019-Jun-12 01:29N 38°40' W 009°09'0 0.0
2019-Jun-12 00:59N 38°40' W 009°09'0 0.0
2019-Jun-12 00:26N 38°40' W 009°09'0 0.0
2019-Jun-11 23:59N 38°40' W 009°09'0 0.0
2019-Jun-11 23:26N 38°40' W 009°09'0 0.0
2019-Jun-11 22:59N 38°40' W 009°09'0 0.0
2019-Jun-11 22:29N 38°40' W 009°09'0 0.0
2019-Jun-11 21:59N 38°40' W 009°09'0 0.0
2019-Jun-11 21:29N 38°40' W 009°09'0 0.0
2019-Jun-11 20:59N 38°40' W 009°09'0 0.0
2019-Jun-11 20:29N 38°40' W 009°09'0 0.0
2019-Jun-11 19:59N 38°40' W 009°09'0 0.0
2019-Jun-11 19:29N 38°40' W 009°09'0 0.0
2019-Jun-11 18:59N 38°40' W 009°09'0 0.0
2019-Jun-11 18:29N 38°40' W 009°09'0 0.0
2019-Jun-11 17:59N 38°40' W 009°09'0 0.0
2019-Jun-11 17:29N 38°40' W 009°09'0 0.0
2019-Jun-11 16:59N 38°40' W 009°09'0 0.0
2019-Jun-11 16:29N 38°40' W 009°09'0 0.0
2019-Jun-11 15:59N 38°40' W 009°09'0 0.0
2019-Jun-11 15:26N 38°40' W 009°09'0 0.0
2019-Jun-11 14:53N 38°40' W 009°09'0 0.0
2019-Jun-11 14:29N 38°40' W 009°09'0 0.0
2019-Jun-11 13:59N 38°40' W 009°09'0 0.0
2019-Jun-11 13:29N 38°40' W 009°09'0 0.0
2019-Jun-11 12:59N 38°40' W 009°09'0 0.0
2019-Jun-11 12:26N 38°40' W 009°09'0 0.0
2019-Jun-11 11:59N 38°40' W 009°09'0 0.0
2019-Jun-11 11:29N 38°40' W 009°09'0 0.0
2019-Jun-11 10:59N 38°40' W 009°09'0 0.0
2019-Jun-11 10:29N 38°40' W 009°09'0 0.0
2019-Jun-11 09:56N 38°40' W 009°09'0 0.0
2019-Jun-11 09:29N 38°40' W 009°09'0 0.0
2019-Jun-11 08:59N 38°40' W 009°09'0 0.0
2019-Jun-11 08:29N 38°40' W 009°09'0 0.0
2019-Jun-11 07:53N 38°40' W 009°09'0 0.0
2019-Jun-11 07:26N 38°40' W 009°09'0 0.0
2019-Jun-11 06:59N 38°40' W 009°09'0 0.0
2019-Jun-11 06:29N 38°40' W 009°09'0 0.0
2019-Jun-11 05:59N 38°40' W 009°09'0 0.0
2019-Jun-11 05:29N 38°40' W 009°09'0 0.0
2019-Jun-11 04:59N 38°40' W 009°09'0 0.0
2019-Jun-11 04:29N 38°40' W 009°09'0 0.0
2019-Jun-11 03:59N 38°40' W 009°09'0 0.0
2019-Jun-11 03:29N 38°40' W 009°09'0 0.0
2019-Jun-11 02:59N 38°40' W 009°09'0 0.0
2019-Jun-11 02:29N 38°40' W 009°09'0 0.0
2019-Jun-11 01:59N 38°40' W 009°09'0 0.0
2019-Jun-11 01:29N 38°40' W 009°09'0 0.0
2019-Jun-11 00:59N 38°40' W 009°09'0 0.0
2019-Jun-11 00:29N 38°40' W 009°09'0 0.0
2019-Jun-10 23:59N 38°40' W 009°09'0 0.0
2019-Jun-10 23:29N 38°40' W 009°09'0 0.0
2019-Jun-10 22:59N 38°40' W 009°09'0 0.0
2019-Jun-10 22:29N 38°40' W 009°09'0 0.0
2019-Jun-10 21:59N 38°40' W 009°09'0 0.0
2019-Jun-10 21:29N 38°40' W 009°09'0 0.0
2019-Jun-10 20:59N 38°40' W 009°09'0 0.0
2019-Jun-10 20:29N 38°40' W 009°09'0 0.0
2019-Jun-10 19:59N 38°40' W 009°09'0 0.0
2019-Jun-10 19:29N 38°40' W 009°09'0 0.0
2019-Jun-10 18:59N 38°40' W 009°09'0 0.0
2019-Jun-10 18:26N 38°40' W 009°09'0 0.0
2019-Jun-10 17:59N 38°40' W 009°09'0 0.0
2019-Jun-10 17:29N 38°40' W 009°09'0 0.0
2019-Jun-10 16:59N 38°40' W 009°09'0 0.0
2019-Jun-10 16:29N 38°40' W 009°09'0 0.0
2019-Jun-10 15:59N 38°40' W 009°09'0 0.0
2019-Jun-10 15:29N 38°40' W 009°09'0 0.0
2019-Jun-10 14:59N 38°40' W 009°09'0 0.0
2019-Jun-10 14:29N 38°40' W 009°09'0 0.0
2019-Jun-10 13:59N 38°40' W 009°09'0 0.0
2019-Jun-10 13:29N 38°40' W 009°09'0 0.0
2019-Jun-10 12:59N 38°40' W 009°09'0 0.0
2019-Jun-10 12:29N 38°40' W 009°09'0 0.0
2019-Jun-10 11:59N 38°40' W 009°09'0 0.0
2019-Jun-10 11:23N 38°40' W 009°09'0 0.0
2019-Jun-10 10:56N 38°40' W 009°09'0 0.0
2019-Jun-10 10:29N 38°40' W 009°09'0 0.0
2019-Jun-10 09:59N 38°40' W 009°09'0 0.0
2019-Jun-10 09:29N 38°40' W 009°09'0 0.0
2019-Jun-10 08:59N 38°40' W 009°09'0 0.0
2019-Jun-10 08:29N 38°40' W 009°09'0 0.0
2019-Jun-10 07:59N 38°40' W 009°09'0 0.0
2019-Jun-10 07:29N 38°40' W 009°09'0 0.0
2019-Jun-10 06:59N 38°40' W 009°09'0 0.0
2019-Jun-10 06:29N 38°40' W 009°09'0 0.0
2019-Jun-10 05:59N 38°40' W 009°09'0 0.0
2019-Jun-10 05:29N 38°40' W 009°09'0 0.0
2019-Jun-10 04:59N 38°40' W 009°09'0 0.0
2019-Jun-10 04:29N 38°40' W 009°09'0 0.0
2019-Jun-10 03:59N 38°40' W 009°09'0 0.0
2019-Jun-10 03:29N 38°40' W 009°09'0 0.0
2019-Jun-10 02:59N 38°40' W 009°09'0 0.0
2019-Jun-10 02:29N 38°40' W 009°09'0 0.0
2019-Jun-10 01:59N 38°40' W 009°09'0 0.0
2019-Jun-10 01:29N 38°40' W 009°09'0 0.0
2019-Jun-10 00:53N 38°40' W 009°09'0 0.0
2019-Jun-10 00:26N 38°40' W 009°09'0 0.0
2019-Jun-09 23:59N 38°40' W 009°09'0 0.0
2019-Jun-09 23:29N 38°40' W 009°09'0 0.0
2019-Jun-09 22:53N 38°40' W 009°09'0 0.0
2019-Jun-09 22:29N 38°40' W 009°09'0 0.0
2019-Jun-09 21:59N 38°40' W 009°09'0 0.0
2019-Jun-09 21:29N 38°40' W 009°09'0 0.0
2019-Jun-09 20:59N 38°40' W 009°09'0 0.0
2019-Jun-09 20:29N 38°40' W 009°09'0 0.0
2019-Jun-09 19:59N 38°40' W 009°09'0 0.0
2019-Jun-09 19:29N 38°40' W 009°09'0 0.0
2019-Jun-09 18:59N 38°40' W 009°09'0 0.0
2019-Jun-09 18:29N 38°40' W 009°09'0 0.0
2019-Jun-09 17:59N 38°40' W 009°09'0 0.0
2019-Jun-09 17:26N 38°40' W 009°09'0 0.0
2019-Jun-09 16:08N 38°40' W 009°09'0 0.0
2019-Jun-09 13:41N 38°40' W 009°09'0 0.0
2019-Jun-09 12:17N 38°40' W 009°09'0 0.0
2019-Jun-09 10:47N 38°40' W 009°09'0 0.0
2019-Jun-09 10:23N 38°40' W 009°09'0 0.0
2019-Jun-09 09:59N 38°40' W 009°09'0 0.0
2019-Jun-09 09:26N 38°40' W 009°09'0 0.0
2019-Jun-09 08:56N 38°40' W 009°09'0 0.0
2019-Jun-09 08:30N 38°40' W 009°09'0 0.0
2019-Jun-09 08:00N 38°40' W 009°09'0 0.0
2019-Jun-09 06:23N 38°40' W 009°09'0 0.0
2019-Jun-09 04:50N 38°40' W 009°09'0 0.0
2019-Jun-09 02:35N 38°40' W 009°09'0 0.0
2019-Jun-08 23:51N 38°40' W 009°09'0 0.0
2019-Jun-08 20:04N 38°40' W 009°09'0 0.0
2019-Jun-08 19:05N 38°40' W 009°09'0 0.0
2019-Jun-08 18:26N 38°40' W 009°09'0 0.0
2019-Jun-08 15:05N 38°40' W 009°09'0 0.0
2019-Jun-08 14:02N 38°40' W 009°09'0 0.0
2019-Jun-08 13:17N 38°40' W 009°09'0 0.0
2019-Jun-08 11:59N 38°40' W 009°09'0 0.0
2019-Jun-08 11:14N 38°40' W 009°09'0 0.0
2019-Jun-08 10:11N 38°40' W 009°09'0 0.0
2019-Jun-08 09:35N 38°40' W 009°09'0 0.0
2019-Jun-08 08:53N 38°40' W 009°09'0 0.0
2019-Jun-08 08:05N 38°40' W 009°09'0 0.0
2019-Jun-08 07:44N 38°40' W 009°09'0 0.0
2019-Jun-08 07:17N 38°40' W 009°09'0 0.0
2019-Jun-08 06:56N 38°40' W 009°09'0 0.0
2019-Jun-08 06:26N 38°40' W 009°09'0 0.0
2019-Jun-08 05:44N 38°40' W 009°09'0 0.0
2019-Jun-08 04:05N 38°40' W 009°09'0 0.0
2019-Jun-08 03:53N 38°40' W 009°09'0 0.0
2019-Jun-08 03:23N 38°40' W 009°09'0 0.0
2019-Jun-08 02:59N 38°40' W 009°09'0 0.0
2019-Jun-08 02:29N 38°40' W 009°09'0 0.0
2019-Jun-08 00:56N 38°40' W 009°09'0 0.0
2019-Jun-08 00:29N 38°40' W 009°09'0 0.0
2019-Jun-07 23:59N 38°40' W 009°09'0 0.0
2019-Jun-07 22:17N 38°40' W 009°09'0 0.0
2019-Jun-07 19:59N 38°40' W 009°09'0 0.0
2019-Jun-07 18:05N 38°40' W 009°09'0 0.0
2019-Jun-07 17:56N 38°40' W 009°09'0 0.0
2019-Jun-07 17:23N 38°40' W 009°09'0 0.0
2019-Jun-07 16:35N 38°40' W 009°09'0 0.0
2019-Jun-07 16:05N 38°40' W 009°09'0 0.0
2019-Jun-07 15:59N 38°40' W 009°09'0 0.0
2019-Jun-07 15:23N 38°40' W 009°09'0 0.0
2019-Jun-07 14:29N 38°40' W 009°09'0 0.0
2019-Jun-07 13:59N 38°40' W 009°09'0 0.0
2019-Jun-07 13:26N 38°40' W 009°09'0 0.0
2019-Jun-07 12:59N 38°40' W 009°09'0 0.0
2019-Jun-07 12:29N 38°40' W 009°09'0 0.0
2019-Jun-07 11:59N 38°40' W 009°09'0 0.0
2019-Jun-07 11:26N 38°40' W 009°09'0 0.0
2019-Jun-07 10:56N 38°40' W 009°09'0 0.0
2019-Jun-07 10:29N 38°40' W 009°09'0 0.0
2019-Jun-07 09:56N 38°40' W 009°09'0 0.0
2019-Jun-07 09:29N 38°40' W 009°09'0 0.0
2019-Jun-07 08:59N 38°40' W 009°09'0 0.0
2019-Jun-07 08:29N 38°40' W 009°09'0 0.0
2019-Jun-07 07:56N 38°40' W 009°09'0 0.0
2019-Jun-07 07:29N 38°40' W 009°09'0 0.0
2019-Jun-07 07:00N 38°40' W 009°09'0 0.0
2019-Jun-07 06:29N 38°40' W 009°09'0 0.0
2019-Jun-07 05:59N 38°40' W 009°09'0 0.0
2019-Jun-07 05:29N 38°40' W 009°09'0 0.0
2019-Jun-07 04:53N 38°40' W 009°09'0 0.0
2019-Jun-07 04:29N 38°40' W 009°09'0 0.0
2019-Jun-07 03:59N 38°40' W 009°09'0 0.0
2019-Jun-07 03:29N 38°40' W 009°09'0 0.0
2019-Jun-07 02:59N 38°40' W 009°09'0 0.0
2019-Jun-07 02:29N 38°40' W 009°09'0 0.0
2019-Jun-07 01:56N 38°40' W 009°09'0 0.0
2019-Jun-07 01:29N 38°40' W 009°09'0 0.0
2019-Jun-07 00:56N 38°40' W 009°09'0 0.0
2019-Jun-07 00:29N 38°40' W 009°09'0 0.0
2019-Jun-06 23:59N 38°40' W 009°09'0 0.0
2019-Jun-06 22:59N 38°40' W 009°09'0 0.0
2019-Jun-06 22:29N 38°40' W 009°09'  

Dump ship's entire track history